Shelton, WA
on Friday, January 11, 2013

Friday
Previous Day Next Day
Daily Summary
 ActualAverage (KOLM)Record (KOLM)
Temperature
Mean Temperature °F 40°F  
Max Temperature 37°F 45°F 59°F (1983)
Min Temperature 26°F 34°F 6°F (1963)
Degree Days
Heating Degree Days 34 25  
Month to date heating degree days 285  
Since 1 July heating degree days 2555  
Cooling Degree Days 0 0  
Month to date cooling degree days 0  
Year to date cooling degree days 0  
Moisture
Dew Point 28°F   
Average Humidity 88    
Maximum Humidity 100    
Minimum Humidity 62    
Precipitation
Precipitation 0.00 in 0.26 in 1.16 in (1953)
Month to date precipitation 2.83  
Year to date precipitation 2.83  
Wind
Wind Speed 1 mph   
Max Wind Speed 7 mph   
Max Gust Speed mph   
Visibility 8 miles   
Events     

Key: T is trace of precipitation, MM is missing value
Source: NWS Daily Summary
Time(PST)TemperatureDew PointHumidity Pressure Visibility Wind DirectionWind SpeedGust SpeedPrecipitationEvents Conditions
12:37 AM 33.8°F 33.8°F 100% 30.10 in 10.0 miles Calm Calm - N/A   Overcast
12:53 AM 34.0°F 33.1°F 96% 30.13 in 10.0 miles Calm Calm - N/A   Overcast
1:53 AM 34.0°F 33.1°F 96% 30.14 in 10.0 miles Calm Calm - N/A   Overcast
2:23 AM 33.8°F 30.2°F 87% 30.12 in 10.0 miles West 6.9 mph - N/A   Mostly Cloudy
2:53 AM 33.1°F 30.9°F 92% 30.14 in 10.0 miles Calm Calm - N/A   Mostly Cloudy
3:23 AM 32.0°F 30.2°F 93% 30.13 in 10.0 miles Calm Calm - N/A   Overcast
3:53 AM 30.9°F 28.9°F 92% 30.15 in 10.0 miles Calm Calm - N/A   Partly Cloudy
4:53 AM 28.9°F 28.0°F 96% 30.16 in 10.0 miles Calm Calm - N/A   Clear
5:53 AM 28.0°F 27.0°F 96% 30.18 in 8.0 miles Calm Calm - N/A   Overcast
6:14 AM 28.4°F 28.4°F 100% 30.16 in 3.0 miles Calm Calm - N/A   Overcast
6:53 AM 28.0°F 27.0°F 96% 30.20 in 10.0 miles Calm Calm - N/A   Mostly Cloudy
7:05 AM 28.4°F 26.6°F 93% 30.19 in 1.8 miles Calm Calm - N/A   Mostly Cloudy
7:30 AM 28.4°F 26.6°F 93% 30.20 in 2.0 miles Calm Calm - N/A   Overcast
7:53 AM 28.0°F 27.0°F 96% 30.23 in 2.5 miles Calm Calm - N/A   Mostly Cloudy
8:00 AM 26.6°F 26.6°F 100% 30.21 in 3.0 miles Calm Calm - N/A   Overcast
8:06 AM 26.6°F 26.6°F 100% 30.21 in 1.8 miles Calm Calm - N/A   Overcast
8:12 AM 26.6°F 26.6°F 100% 30.22 in 3.0 miles Calm Calm - N/A   Mostly Cloudy
8:21 AM 26.6°F 24.8°F 93% 30.22 in 2.0 miles Calm Calm - N/A   Scattered Clouds
8:23 AM 26.6°F 24.8°F 93% 30.22 in 1.5 miles Calm Calm - N/A   Mostly Cloudy
8:36 AM 26.6°F 24.8°F 93% 30.23 in 2.0 miles Calm Calm - N/A   Scattered Clouds
8:44 AM 26.6°F 26.6°F 100% 30.24 in 3.0 miles Calm Calm - N/A   Mostly Cloudy
8:51 AM 26.6°F 26.6°F 100% 30.23 in 2.5 miles Calm Calm - N/A   Scattered Clouds
8:52 AM 27.0°F 27.0°F 100% 30.26 in 3.0 miles Calm Calm - N/A   Scattered Clouds
9:53 AM 32.0°F 30.9°F 96% 30.27 in 10.0 miles Calm Calm - N/A   Partly Cloudy
10:53 AM 36.0°F 27.0°F 70% 30.29 in 10.0 miles NE 3.5 mph - N/A   Overcast
11:53 AM 37.0°F 27.0°F 67% 30.28 in 10.0 miles Variable 3.5 mph - N/A   Clear
12:53 PM 37.0°F 27.0°F 67% 30.28 in 10.0 miles ESE 3.5 mph - N/A   Partly Cloudy
1:06 PM 37.4°F 26.6°F 65% 30.27 in 10.0 miles South 5.8 mph - N/A   Mostly Cloudy
1:30 PM 37.4°F 26.6°F 65% 30.27 in 10.0 miles SE 3.5 mph - N/A   Scattered Clouds
1:53 PM 37.9°F 26.1°F 62% 30.29 in 10.0 miles Variable 3.5 mph - N/A   Clear
2:53 PM 36.0°F 26.1°F 67% 30.30 in 10.0 miles ESE 3.5 mph - N/A   Mostly Cloudy
3:53 PM 37.0°F 26.1°F 65% 30.30 in 10.0 miles Calm Calm - N/A   Overcast
4:53 PM 34.0°F 27.0°F 75% 30.31 in 10.0 miles SE 3.5 mph - N/A   Overcast
5:53 PM 33.1°F 27.0°F 78% 30.32 in 10.0 miles Calm Calm - N/A   Overcast
6:53 PM 33.1°F 27.0°F 78% 30.32 in 10.0 miles NNE 3.5 mph - N/A   Overcast
7:53 PM 32.0°F 27.0°F 82% 30.31 in 10.0 miles Calm Calm - N/A   Overcast
8:53 PM 28.9°F 27.0°F 92% 30.31 in 10.0 miles Calm Calm - N/A   Clear
9:53 PM 28.9°F 28.0°F 96% 30.31 in 10.0 miles Calm Calm - N/A   Clear
10:53 PM 28.0°F 27.0°F 96% 30.31 in 10.0 miles Calm Calm - N/A   Clear
11:53 PM 27.0°F 26.1°F 96% 30.31 in 10.0 miles Calm Calm - N/A   Partly Cloudy
Moon Phase
Jan. 11 Jan. 18 Jan. 26 Feb. 03 Feb. 10
Sunrise:07:56 AM (PST) Moon Rise:07:31 AM (PST)1/11
Sunset:04:44 PM (PST) Moon Set:05:13 PM (PST)1/11

Copyright © 2014 The Weather Underground, Inc.